Location: Guayaquil
(2.1667°S, 79.9000°W)
Time: 22:47:12
(UTC-05:00)

Envisat - Pass Details

Date: 09 August 2020
Orbit: 764 x 766 km, 98.1° (Epoch: 26 September)

Event Time Altitude Azimuth Distance (km) Brightness Sun altitude
Rises 18:37:47 0° 183° (S) 3,231 6.1 -3.7°
Reaches altitude 10° 18:40:14 10° 191° (SSW) 2,303 5.5 -4.2°
Maximum altitude 18:44:53 37° 257° (WSW) 1,183 4.7 -5.4°
Drops below altitude 10° 18:49:30 10° 324° (NW) 2,293 6.3 -6.5°
Sets 18:51:58 0° 332° (NNW) 3,216 6.9 -7.1°
